Погода в Кислокане

Погода в Кислокане : погода сейчас, прогноз погоды и архив. Всё, что Вы хотите узнать о погоде в Кислокане!

Поиск расширенной информации на нашем сайте:

Другие новости

Новости СМИ2

Главная страница сайта

Новости сайта

03.07.2017

Напоминаем, что на нашем специализированном сайте Метеоцентр.Азия вы можете получить высокодетализированные автоматические прогнозы погоды по пунктам России, СНГ и мира в авиационном формате (включающие направление и скорость ветра, видимость, явления погоды, количество и форму облачности, нижнюю и верхнюю границу облачности).


Погода в Кислокане - сегодня

Время (UTC), дата Ветер
(°,м/с) 
Видим.   Явления Облачность Т
(°С)
Тd
(°С)
f(%) Тe
(°С)
Pmin
(гПа)
dP
(гПа)
Po
(мм)
O2
(г/м3)
Тmin Tmax R s Состояние
почвы
15 19.11.17 160 (Ю) н/о  слаб. снег  10/8 2000 м средняя, верхняя 
[Ac trans|Cs]
-23.7 -27 74 -30  1016.9  -3.2  741  329           
18 19.11.17 120 (ЮВ) н/о  слаб. снег  10/9 2000 м средняя, верхняя 
[Ac trans|Cs]
-22.7 -25.9 75 -23  1014.4  -2.2  739  327           
21 19.11.17 120 (ЮВ) н/о  слаб. снег  10/9 2000 м средняя, верхняя 
[Ac trans|Cs]
-22.1 -24.7 79 -25  1013.3  -1  739  325           
00 20.11.17 тихо ()   н/о  слаб. снег  10/8 2000 м средняя, верхняя 
[Ac trans|Cs]
-21.2 -23.7 80 -21  1013.7  0.5  739  324  -28    25  равномерный
сухой снег
100% 
03 20.11.17 360 (С) 4000 м  слаб. снег  10/6 2000 м средняя, верхняя 
[Ac trans|Cs]
-20.7 -23.2 80 -21  1014.5  0.8  740  324           
06 20.11.17 тихо ()   4000 м  слаб. снег  10/5 2000 м средняя, верхняя 
[Ac trans|Cs]
-19.9 -22.5 80 -20  1016.2  1.7  741  324           
09 20.11.17 тихо ()   н/о  {снег}  10/6 2000 м средняя, верхняя 
[Ac trans|Cs]
-24.3 -26.8 80 -24  1018.8  2.1  742  330           
12 20.11.17 250 (З) н/о  слаб. снег  10/5 2000 м средняя, верхняя 
[Ac trans|Cs]
-24.6 -27.2 79 -25  1020.9  744  331    -19.9  0.6     
15 20.11.17 тихо ()   н/о  слаб. снег  10/3 2000 м средняя, верхняя 
[Ac trans|Cs]
-25.4 -27.8 80 -25  1022.5  1.5  745  333           
18 20.11.17 010 (С) н/о  {снег}  ясно 
-28.6 -31 80 -32  1024.5  1.5  746  338           
21 20.11.17 010 (С) н/о    ясно 
-30.6 -33 79 -34  1026.8  1.5  747  341           
00 21.11.17 340 (С) н/о    ясно 
-32.7 -35.1 79 -34  1028.2  1.5  748  345  -33.2    0.2  25  равномерный
сухой снег
100% 
03 21.11.17 310 (СЗ) 20000 м    ясно 
-34 -36.2 80 -35  1029.1  0.8  749  347  -35.2         
06 21.11.17 350 (С) 20000 м    3/1 2000 м средняя, верхняя 
[Ac lent|Ci sp]
-25.3 -27.8 80 -29  1029.2  1.2  750  335           
09 21.11.17 360 (С) н/о    8/1 1000 м верхняя 
[Sc|Ci sp]
-26.6 -29 80 -30  1030.9  1.5  751  337           
12 21.11.17 080 (В) н/о    ясно 
-33.1 -36 75 -34  1032.5  0.8  752  347    -25.3       
15 21.11.17 230 (ЮЗ) н/о    ясно 
-34.5 -37.4 75 -35  1033.6  0.7  752  349           
18 21.11.17 330 (СЗ) н/о    ясно 
-32.5 -35.5 75 -33  1033.6  0.3  752  346           
21 21.11.17 320 (СЗ) н/о    ясно 
-36.2 -39 76 -37  1034.3  0.3  753  352           
00 22.11.17 тихо ()   н/о  слаб. снег  10/5 2000 м средняя, верхняя 
[Ac trans|Cs]
-32.1 -35 75 -32  1033.9  0.1  753  346  -37    0.0  25  равномерный
сухой снег
100% 
03 22.11.17 010 (С) 4000 м  слаб. снег  10/4 2000 м средняя, верхняя 
[Ac trans|Cs]
-29.2 -31.6 80 -30  1033.4  -0.1  753  341           
06 22.11.17 330 (СЗ) 4000 м  слаб. снег  10/3 2000 м средняя, верхняя 
[Ac trans|Cs]
-26.3 -28.7 80 -30  1032.9  -0.1  752  337           
09 22.11.17 290 (З) н/о  {снег}  6/1 1000 м средняя, верхняя 
[Sc|Ac trans|Ci sp]
-27.9 -30.3 80 -29  1034  0.8  753  340           
12 22.11.17 320 (СЗ) н/о  {снег}  10/8 2000 м средняя, верхняя 
[Ac trans|Ci sp]
-23.7 -26.3 79 -24  1034.3  0.8  754  334    -23.7  0.2     
15 22.11.17 300 (СЗ) н/о    3/0 верхняя 
[Ci sp]
-29 -31.4 80 -30  1035.3  0.4  754  342           
Время (UTC), дата Ветер
(°,м/с) 
Видим.   Явления Облачность Т
(°С)
Тd
(°С)
f(%) Тe
(°С)
Pmin
(гПа)
dP
(гПа)
Po
(мм)
O2
(г/м3)
Тmin Tmax R s Состояние
почвы

Для получения пояснительной информации подведите курсор к названию столбца.

ПОГОДА в Кислокане - архив

Всё, что Вы хотите узнать о погоде в Кислокане - удобно и подробно!

Выберите нужную дату (начиная с 1 января 2015* года) и нажмите кнопку "Найти".
Будут отображены архивные сводки погоды по пункту Кислокан, начиная с указанной даты.


Отображать данные в формате CSV (для использования в таблицах Excel)


Внимание! Наш архив погоды предназначен исключительно для личного некоммерческого использования в познавательных целях. Если Вам необходимы официальные справки о состоянии погоды (для производственных, юридических, коммерческих и т.п. целей), обращайтесь в органы Росгидромета.

*Примечание: данная дата относится к архиву по метеостанциям СССР (Россия, СНГ, Балтия).
Архив по метеостанциям Зарубежной Европы и Азии (кроме Китая) хранится 10 дней, по другим регионам земного шара (Китай, Африка, Америка, Австралия, Океания) - 1 день.

Кислокан - район местоположения метеостанции


Название, широта, долгота, высота метеостанции:
Кислокан 63.6°ш. 104°д. 209 м над ур. моря [Российская Федерация]

Дополнительная информация

В oтличие oт бoльшинства пoгoдных сайтoв мы публикуем пoдрoбную метеoинфoрмацию в детальнoм прoфессиoнальнoм фoрмате.

Характеристики температуры и влажнoсти вoздуха измеряются на высoте 2 м в тени вдали oт зданий и деревьев.
Скoрoсть ветра измеряется на высoте 10 м (на урoвне рoста челoвека скoрoсть ветра ниже в 1.5-2 раза). Если метеoстанция нахoдится в гoрoде или в лесу, тo скoрoсть ветра занижена на 2-4 м/с пo сравнению с oткрытым местoм. Скoрoсть ветра над акватoриями крупных рек и oзёр, а также на вершинах хoлмoв на 2-5 м/с выше, чем в oбычных услoвиях.
Атмoсфернoе давление в разных тoчках местнoсти мoжет значительнo oтличаться oт давления на метеoстанции, в зависимoсти oт услoвий рельефа (при пoдъёме на 10 м давление пoнижается примернo на 1 мм рт.ст.).